Location: Bismarck
(46.7731°N, 100.8200°W)
Time: 17:27:55
(UTC-05:00)

ISS - All Passes

Search period start: 26 September 2016 00:00
Search period end: 06 October 2016 00:00
Orbit: 400 x 410 km, 51.6° (Epoch: 27 September)

Date Brightness Start Highest point End Pass type
(mag) Time Alt. Az. Time Alt. Az. Time Alt. Az.
26 Sep - 01:28:25 10° WNW 01:31:27 33° N 01:34:29 10° ENE night (unlit)
26 Sep - 03:05:07 10° WNW 03:08:21 54° NNE 03:11:36 10° E night (unlit)
26 Sep - 04:41:45 10° WNW 04:44:45 32° SW 04:47:44 10° SSE night (unlit)
26 Sep - 21:24:18 10° S 21:26:23 16° SE 21:28:29 10° E visible
26 Sep - 22:59:13 10° WSW 23:02:29 90° N 23:05:46 10° ENE night (unlit)
27 Sep - 00:36:10 10° WNW 00:39:14 35° N 00:42:18 10° ENE night (unlit)
27 Sep - 02:13:02 10° WNW 02:16:11 41° NNE 02:19:20 10° E night (unlit)
27 Sep - 03:49:33 10° WNW 03:52:46 55° SSW 03:56:01 10° SE night (unlit)
27 Sep - 22:07:14 10° SW 22:10:26 55° SSE 22:13:39 10° ENE visible
27 Sep - 23:43:54 10° W 23:47:01 41° NNW 23:50:10 10° ENE night (unlit)
28 Sep - 01:20:55 10° WNW 01:23:59 35° N 01:27:03 10° ENE night (unlit)
28 Sep - 02:57:26 10° WNW 03:00:44 89° SSW 03:04:01 10° ESE night (unlit)
28 Sep - 04:34:43 10° W 04:36:50 16° SW 04:38:56 10° S night (unlit)
28 Sep - 21:15:29 10° SSW 21:18:26 32° SE 21:21:25 10° ENE visible
28 Sep - 22:51:38 10° W 22:54:50 53° NNW 22:58:04 10° ENE night (unlit)
29 Sep - 00:28:43 10° WNW 00:31:45 33° N 00:34:46 10° ENE night (unlit)
29 Sep - 02:05:21 10° WNW 02:08:37 61° NNE 02:11:52 10° ESE night (unlit)
29 Sep - 03:42:06 10° W 03:44:56 27° SW 03:47:45 10° SSE night (unlit)
29 Sep - 20:24:05 10° S 20:26:30 19° SE 20:28:56 10° E visible
29 Sep - 21:59:26 10° WSW 22:02:41 77° NNW 22:05:58 10° ENE visible
29 Sep - 23:36:27 10° WNW 23:39:29 34° N 23:42:32 10° ENE night (unlit)
30 Sep - 01:13:15 10° WNW 01:16:26 45° NNE 01:19:36 10° E night (unlit)
30 Sep - 02:49:47 10° WNW 02:52:56 45° SW 02:56:06 10° SE night (unlit)
30 Sep - 19:33:33 10° SSE 19:34:38 11° SE 19:35:43 10° ESE daylight
30 Sep - 21:07:21 10° SW 21:10:34 67° SSE 21:13:49 10° ENE visible
30 Sep - 22:44:08 10° W 22:47:14 38° N 22:50:20 10° ENE visible
01 Oct - 00:21:06 10° WNW 00:24:11 37° N 00:27:17 10° E night (unlit)
01 Oct - 01:57:36 10° WNW 02:00:52 75° SSW 02:04:09 10° ESE night (unlit)
01 Oct - 03:35:17 10° WSW 03:36:53 13° SW 03:38:29 10° SSW night (unlit)
01 Oct - 20:15:28 10° SW 20:18:31 39° SE 20:21:37 10° ENE visible
01 Oct - 21:51:49 10° W 21:54:59 48° NNW 21:58:11 10° ENE visible
01 Oct - 23:28:54 10° WNW 23:31:55 33° N 23:34:57 10° ENE night (unlit)
02 Oct - 01:05:27 10° WNW 01:08:44 71° NNE 01:12:01 10° ESE night (unlit)
02 Oct - 02:42:22 10° W 02:44:58 22° SW 02:47:36 10° SSE night (unlit)
02 Oct - 19:23:52 10° SSW 19:26:32 23° SE 19:29:12 10° E daylight
02 Oct - 20:59:33 10° WSW 21:02:47 67° NNW 21:06:02 10° ENE visible
02 Oct - 22:36:37 10° WNW 22:39:38 33° N 22:42:39 10° ENE visible
03 Oct - 00:13:20 10° WNW 00:16:32 50° NNE 00:19:45 10° E night (unlit)
03 Oct - 01:49:55 10° WNW 01:52:59 37° SW 01:56:02 10° SSE night (unlit)
03 Oct - 18:32:49 10° SSE 18:34:35 14° SE 18:36:22 10° ESE daylight
03 Oct - 20:07:22 10° WSW 20:10:37 81° SSE 20:13:53 10° ENE visible
03 Oct - 21:44:16 10° WNW 21:47:19 36° N 21:50:24 10° ENE visible
03 Oct - 23:21:10 10° WNW 23:24:17 39° NNE 23:27:24 10° E night (unlit)
04 Oct - 00:57:39 10° WNW 01:00:55 63° SSW 01:04:09 10° SE night (unlit)
04 Oct - 02:36:08 10° WSW 02:36:49 10° SW 02:37:30 10° SW night (unlit)
04 Oct - 19:15:21 10° SW 19:18:30 48° SSE 19:21:40 10° ENE daylight
04 Oct - 20:51:54 10° W 20:55:02 43° NNW 20:58:12 10° ENE visible
04 Oct - 22:28:56 10° WNW 22:31:59 34° N 22:35:01 10° ENE visible
05 Oct - 00:05:28 10° WNW 00:08:45 82° NNE 00:12:02 10° ESE night (unlit)
05 Oct - 01:42:34 10° W 01:44:54 18° SW 01:47:14 10° S night (unlit)
05 Oct - 18:23:36 10° SSW 18:26:26 28° SE 18:29:18 10° E daylight
05 Oct - 19:59:34 10° W 20:02:46 58° NNW 20:06:00 10° ENE visible
05 Oct - 21:36:39 10° WNW 21:39:38 33° N 21:42:40 10° ENE visible
05 Oct - 23:13:18 10° WNW 23:16:32 56° NNE 23:19:46 10° E visible
